1491926400.99,52839,16.19,73186.8,-4.11,-36.31,-37.03,0,*51
1491926402.22,52840,16.19,73190.3,-4.13,-35.01,-35.77,0,*5C
1491926403.52,52841,16.19,73192.8,-4.15,-34.53,-35.07,0,*5A
1491926404.76,52842,16.19,73188.5,-4.13,-34.01,-34.41,0,*5B
1491926406.0,52843,16.19,73194.8,-4.15,-34.07,-34.47,0,*5C
1491926407.3,52844,16.19,73196.0,-4.15,-34.65,-35.35,0,*5B
1491926408.6,52845,16.19,73194.0,-4.15,-35.07,-35.83,0,*52
1491926409.89,52846,16.19,73188.5,-4.15,-34.35,-35.07,0,*5D
1491926411.13,52847,16.19,73188.8,-4.17,-34.13,-34.83,0,*57
1491926412.4,52848,16.19,73192.3,-4.17,-34.53,-35.07,0,*51
1491926413.7,52849,16.19,73194.8,-4.15,-34.83,-35.41,0,*5D
1491926414.99,52850,16.19,73162.3,-4.19,-35.83,-36.79,0,*50
1491926416.26,52851,16.19,73180.3,-4.19,-36.55,-37.21,0,*55
1491926417.53,52852,16.19,73180.3,-4.23,-35.53,-36.49,0,*55
1491926418.76,52853,16.19,73174.3,-4.21,-35.01,-35.77,0,*5F
1491926420.01,52854,16.19,73176.0,-4.21,-34.59,-35.35,0,*52
1491926421.29,52855,16.19,73170.3,-4.21,-34.65,-35.35,0,*5C
1491926422.54,52856,16.19,73178.5,-4.21,-34.65,-35.47,0,*5A
1491926423.78,52857,16.19,73184.8,-4.23,-34.59,-35.47,0,*56
1491926425.05,52858,16.19,73174.5,-4.23,-35.13,-35.95,0,*59
1491926426.3,52859,16.19,73168.0,-4.25,-34.53,-35.17,0,*51
1491926427.57,52860,16.19,73184.0,-4.25,-34.65,-35.35,0,*5E
1491926428.83,52861,16.19,73172.0,-4.27,-34.83,-35.71,0,*55
1491926430.1,52862,16.19,73164.8,-4.27,-35.17,-36.13,0,*5D
1491926431.33,52863,16.19,73160.3,-4.25,-34.41,-35.23,0,*5C
1491926432.58,52864,16.19,73162.5,-4.25,-34.47,-35.35,0,*5A
1491926433.84,52865,16.19,73166.8,-4.27,-34.41,-35.23,0,*58
1491926435.11,52866,16.19,73174.5,-4.27,-34.47,-35.41,0,*59
1491926436.35,52867,16.19,73186.0,-4.27,-34.25,-35.17,0,*5F
1491926437.62,52868,16.19,73162.0,-4.27,-35.77,-36.91,0,*5B
1491926438.88,52869,16.19,73144.0,-4.27,-35.53,-36.55,0,*54
1491926440.12,52870,16.19,73146.8,-4.29,-35.47,-36.61,0,*50
1491926441.36,52871,16.19,73152.8,-4.33,-35.41,-36.43,0,*5C
1491926442.6,52872,16.19,73138.0,-4.29,-35.77,-36.91,0,*5E
1491926443.84,52873,16.19,73150.5,-4.33,-35.29,-36.25,0,*50
1491926445.14,52874,16.19,73148.0,-4.35,-34.65,-35.83,0,*57
1491926446.34,52875,16.19,73152.0,-4.37,-35.13,-36.07,0,*5B
1491926447.55,52876,16.19,73164.3,-4.37,-35.29,-36.43,0,*51
1491926448.77,52877,16.19,73166.0,-4.37,-35.17,-36.25,0,*5D
1491926450.05,52878,16.19,73172.5,-4.39,-34.95,-36.13,0,*52
1491926451.31,52879,16.19,73176.8,-4.39,-34.65,-35.59,0,*51
1491926452.55,52880,16.19,73170.8,-4.39,-34.59,-35.77,0,*54
1491926453.8,52881,16.19,73180.3,-4.39,-34.65,-35.71,0,*5C
1491926455.06,52882,16.19,73178.0,-4.37,-34.35,-35.35,0,*54
1491926456.3,52883,16.19,73176.8,-4.37,-34.77,-35.95,0,*59
1491926457.56,52884,16.19,73180.3,-4.37,-34.65,-35.83,0,*5A
1491926458.81,52885,16.19,73176.3,-4.39,-35.07,-36.19,0,*50
1491926460.02,52886,16.19,73178.3,-4.41,-34.41,-35.59,0,*58
1491926461.27,52887,16.19,73180.3,-4.41,-34.31,-35.35,0,*54
1491926462.53,52888,16.19,73184.0,-4.39,-34.71,-36.13,0,*57
1491926463.75,52889,16.19,73180.5,-4.41,-34.47,-35.77,0,*5D
1491926465.03,52890,16.19,73180.0,-4.39,-34.31,-35.41,0,*5E
1491926466.28,52891,16.19,73182.8,-4.39,-34.07,-35.23,0,*5E
1491926467.53,52892,16.25,73186.0,-4.39,-34.07,-35.07,0,*5B
1491926468.78,52893,16.19,73180.5,-4.39,-34.13,-35.23,0,*59
1491926470.04,52894,16.19,73184.0,-4.41,-34.31,-35.41,0,*55
1491926471.25,52895,16.25,73188.8,-4.37,-34.07,-35.29,0,*5E
1491926472.48,52896,16.19,73196.8,-4.39,-34.07,-35.17,0,*5E
1491926473.73,52897,16.19,73174.3,-4.39,-33.89,-35.17,0,*5E
1491926475.01,52898,16.19,73176.5,-4.39,-34.65,-36.13,0,*53
1491926476.26,52899,16.19,73174.3,-4.39,-35.23,-36.55,0,*53
1491926477.51,52900,16.19,73174.3,-4.39,-34.31,-35.71,0,*55
1491926478.77,52901,16.19,73168.5,-4.39,-34.83,-36.19,0,*50
1491926480.03,52902,16.19,73172.3,-4.39,-34.83,-36.01,0,*5A
1491926481.25,52903,16.19,73182.8,-4.39,-34.41,-35.71,0,*51
1491926482.48,52904,16.25,73182.5,-4.41,-34.31,-35.59,0,*54
1491926483.71,52905,16.19,73178.0,-4.41,-34.31,-35.59,0,*55
1491926484.94,52906,16.19,73182.8,-4.39,-34.41,-35.59,0,*5E
1491926486.19,52907,16.19,73184.0,-4.39,-34.25,-35.41,0,*54
1491926487.44,52908,16.19,73182.5,-4.39,-34.25,-35.53,0,*58
1491926488.67,52909,16.19,73186.8,-4.41,-34.25,-35.41,0,*55
1491926489.93,52910,16.19,73186.3,-4.41,-34.31,-35.53,0,*5B
1491926491.18,52911,16.19,73188.3,-4.39,-34.31,-35.59,0,*5F
1491926492.41,52912,16.19,73188.8,-4.41,-34.07,-35.35,0,*5C
1491926493.64,52913,16.19,73192.8,-4.41,-33.95,-35.23,0,*56
1491926494.88,52914,16.19,73190.3,-4.39,-33.95,-35.23,0,*5E
1491926496.13,52915,16.19,73194.5,-4.39,-33.89,-35.17,0,*55
1491926497.38,52916,16.19,73192.0,-4.39,-34.07,-35.23,0,*50
1491926498.63,52917,16.19,73192.8,-4.39,-34.07,-35.35,0,*56
1491926499.89,52918,16.19,73188.8,-4.39,-34.07,-35.23,0,*5E
1491926501.12,52919,16.19,73188.0,-4.37,-34.01,-35.29,0,*5D
1491926502.35,52920,16.19,73194.0,-4.37,-33.89,-35.13,0,*59
1491926503.61,52921,16.19,73192.5,-4.35,-33.89,-35.13,0,*5A
1491926504.84,52922,16.19,73188.8,-4.37,-34.19,-35.29,0,*5C
1491926506.11,52923,16.19,73196.5,-4.35,-34.19,-35.47,0,*57
1491926507.34,52924,16.19,73198.8,-4.37,-34.07,-35.35,0,*58
1491926508.55,52925,16.19,73196.0,-4.37,-34.07,-35.29,0,*54
1491926509.79,52926,16.19,73196.8,-4.37,-34.01,-35.29,0,*51
1491926511.02,52927,16.19,73196.5,-4.37,-34.19,-35.47,0,*51
1491926512.27,52928,16.19,73196.3,-4.37,-34.35,-35.65,0,*50
1491926513.47,52929,16.19,73200.3,-4.37,-34.25,-35.47,0,*50
1491926514.73,52930,16.19,73204.3,-4.39,-34.31,-35.71,0,*56
1491926515.96,52931,16.19,73204.5,-4.37,-34.41,-35.83,0,*53
1491926517.19,52932,16.19,73202.3,-4.37,-34.19,-35.47,0,*55
1491926518.41,52933,16.19,73202.3,-4.37,-34.25,-35.65,0,*5B
1491926519.61,52934,16.19,73200.8,-4.37,-34.25,-35.71,0,*59
1491926520.84,52935,16.19,73200.5,-4.37,-34.25,-35.53,0,*58
1491926522.06,52936,16.19,73198.3,-4.37,-34.35,-35.71,0,*5A
1491926523.29,52937,16.19,73198.3,-4.37,-34.35,-35.71,0,*5B
1491926524.5,52938,16.19,73198.0,-4.37,-34.07,-35.47,0,*50
1491926525.76,52939,16.19,73198.3,-4.37,-34.19,-35.53,0,*5B
1491926526.99,52940,16.19,73200.5,-4.37,-34.41,-35.95,0,*52
1491926528.22,52941,16.19,73196.5,-4.37,-34.35,-35.71,0,*5A
1491926529.45,52942,16.19,73176.8,-4.35,-34.41,-36.07,0,*5A
1491926530.71,52943,16.19,73186.0,-4.37,-36.25,-37.63,0,*5A
1491926531.95,52944,16.19,73184.5,-4.41,-35.01,-36.37,0,*59
1491926533.17,52945,16.19,73188.8,-4.39,-34.25,-35.71,0,*51
1491926534.4,52946,16.19,73194.8,-4.39,-34.41,-35.89,0,*57
1491926535.62,52947,16.19,73188.5,-4.41,-34.71,-36.31,0,*5A
1491926536.86,52948,16.19,73192.5,-4.41,-34.59,-36.13,0,*5F
1491926538.09,52949,16.19,73188.0,-4.41,-34.47,-36.13,0,*51
1491926539.31,52950,16.19,73192.0,-4.41,-34.41,-35.89,0,*5F
1491926540.55,52951,16.19,73190.8,-4.41,-34.31,-35.77,0,*58
1491926541.76,52952,16.19,73194.8,-4.41,-34.41,-36.01,0,*5E
1491926542.96,52953,16.19,73192.0,-4.41,-34.25,-35.71,0,*59
1491926544.22,52954,16.19,73190.3,-4.39,-34.07,-35.41,0,*52
1491926545.44,52955,16.19,73186.0,-4.39,-34.25,-35.71,0,*50
1491926546.66,52956,16.19,73186.0,-4.41,-34.59,-36.01,0,*53
1491926547.88,52957,16.19,73182.5,-4.41,-34.41,-35.89,0,*58
1491926549.11,52958,16.19,73190.5,-4.41,-34.31,-35.77,0,*51
1491926550.37,52959,16.19,73190.8,-4.39,-34.31,-35.71,0,*59
1491926551.61,52960,16.19,73194.0,-4.41,-34.31,-35.77,0,*5A
1491926552.85,52961,16.19,73194.5,-4.41,-34.31,-35.89,0,*5A
1491926554.06,52962,16.19,73192.0,-4.41,-34.41,-35.89,0,*5E
1491926555.28,52963,16.19,73186.5,-4.41,-34.41,-35.77,0,*5E
1491926556.51,52964,16.19,73190.8,-4.39,-34.71,-36.31,0,*54
1491926557.76,52965,16.19,73188.5,-4.41,-34.83,-36.37,0,*51
1491926559.02,52966,16.19,73196.3,-4.41,-34.83,-36.37,0,*52
1491926560.23,52967,16.19,73194.8,-4.41,-34.59,-36.19,0,*58
1491926561.46,52968,16.19,73176.0,-4.41,-35.23,-37.03,0,*51
1491926562.69,52969,16.19,73160.0,-4.41,-36.67,-38.29,0,*54
1491926563.95,52970,16.19,73176.5,-4.45,-36.49,-38.11,0,*5F
1491926565.17,52971,16.19,73162.8,-4.45,-35.17,-36.79,0,*56
1491926566.43,52972,16.19,73182.0,-4.45,-34.83,-36.49,0,*5A
1491926567.65,52973,16.19,73188.8,-4.45,-35.17,-36.79,0,*54
1491926568.89,52974,16.19,73200.0,-4.45,-34.71,-36.25,0,*5B
1491926570.11,52975,16.19,73188.3,-4.45,-34.71,-36.31,0,*5F
1491926571.32,52976,16.19,73160.8,-4.47,-35.17,-36.85,0,*50
1491926572.58,52977,16.19,73184.8,-4.47,-34.59,-36.25,0,*50
1491926573.82,52978,16.19,73184.0,-4.47,-34.71,-36.31,0,*50
1491926575.08,52979,16.19,73188.0,-4.47,-34.59,-36.25,0,*5E
1491926576.37,52980,16.19,73190.8,-4.47,-34.53,-36.25,0,*52
1491926577.58,52981,16.19,73198.5,-4.49,-34.77,-36.31,0,*5E
1491926578.81,52982,16.19,73196.5,-4.47,-34.77,-36.31,0,*53
1491926580.06,52983,16.19,73198.8,-4.47,-34.77,-36.49,0,*5D
1491926581.32,52984,16.19,73196.8,-4.47,-34.83,-36.43,0,*5B
1491926582.55,52985,16.19,73196.5,-4.47,-34.77,-36.43,0,*51
1491926583.78,52986,16.19,73202.5,-4.47,-34.77,-36.31,0,*57
1491926585.01,52987,16.19,73196.3,-4.47,-34.41,-36.01,0,*50
1491926586.28,52988,16.19,73194.8,-4.47,-34.71,-36.25,0,*5A
1491926587.51,52989,16.19,73196.5,-4.49,-34.77,-36.49,0,*59
1491926588.72,52990,16.19,73198.5,-4.49,-34.59,-36.07,0,*57
1491926589.98,52991,16.19,73202.8,-4.47,-34.35,-35.89,0,*57
1491926591.18,52992,16.19,73202.3,-4.49,-34.13,-35.71,0,*59
1491926592.41,52993,16.19,73206.0,-4.45,-34.41,-36.13,0,*54
1491926593.67,52994,16.19,73202.8,-4.47,-34.35,-36.01,0,*51
1491926594.87,52995,16.19,73204.5,-4.49,-34.41,-36.07,0,*5B
1491926596.08,52996,16.19,73198.3,-4.49,-34.47,-36.07,0,*5E
1491926597.29,52997,16.19,73196.5,-4.49,-34.47,-36.07,0,*5F
1491926598.55,52998,16.19,73196.3,-4.47,-34.35,-36.01,0,*5D
1491926599.75,52999,16.19,73192.0,-4.49,-34.41,-36.19,0,*58
1491926600.98,53000,16.19,73192.5,-4.47,-34.59,-36.43,0,*58
1491926602.22,53001,16.19,73192.5,-4.47,-34.71,-36.43,0,*53
1491926603.5,53002,16.19,73192.0,-4.47,-34.53,-36.13,0,*55
1491926604.75,53003,16.19,73200.5,-4.47,-34.77,-36.49,0,*5D
1491926605.96,53004,16.19,73204.5,-4.49,-35.01,-36.73,0,*5D
1491926607.18,53005,16.19,73186.5,-4.49,-35.53,-37.45,0,*5F
1491926608.42,53006,16.19,73188.8,-4.49,-35.41,-37.21,0,*5D
1491926609.63,53007,16.19,73190.0,-4.49,-34.89,-36.73,0,*5F
1491926610.88,53008,16.19,73192.5,-4.51,-34.59,-36.37,0,*54
1491926612.14,53009,16.19,73196.0,-4.51,-34.59,-36.37,0,*55
1491926613.42,53010,16.19,73198.8,-4.51,-34.65,-36.49,0,*5B
1491926614.67,53011,16.19,73206.5,-4.51,-34.77,-36.55,0,*54
1491926615.95,53012,16.19,73204.8,-4.51,-34.83,-36.49,0,*51
1491926617.19,53013,16.19,73204.0,-4.55,-34.71,-36.55,0,*54
1491926618.42,53014,16.19,73200.0,-4.51,-34.59,-36.19,0,*55
1491926619.68,53015,16.19,73204.5,-4.51,-34.77,-36.49,0,*5D
1491926620.92,53016,16.19,73198.3,-4.51,-34.77,-36.55,0,*53
1491926622.2,53017,16.19,73188.8,-4.51,-34.65,-36.49,0,*5C
1491926623.48,53018,16.19,73186.8,-4.55,-35.65,-37.51,0,*5E
1491926624.72,53019,16.19,73184.3,-4.55,-36.79,-38.73,0,*5E
1491926625.97,53020,16.19,73186.8,-4.55,-36.43,-38.29,0,*52
1491926627.2,53021,16.19,73188.8,-4.57,-35.77,-37.51,0,*55
1491926628.43,53022,16.19,73194.0,-4.57,-35.29,-37.09,0,*50
1491926629.69,53023,16.19,73196.0,-4.59,-34.95,-36.85,0,*5C
1491926630.92,53024,16.19,73200.3,-4.59,-34.77,-36.67,0,*5B
1491926632.18,53025,16.19,73210.0,-4.59,-34.53,-36.31,0,*5F
1491926633.41,53026,16.19,73204.0,-4.59,-34.89,-36.67,0,*58
1491926634.65,53027,16.19,73194.0,-4.59,-36.01,-38.11,0,*54
1491926635.91,53028,16.19,73184.3,-4.59,-36.31,-38.29,0,*53
1491926637.18,53029,16.19,73202.8,-4.59,-38.11,-40.29,0,*51
1491926638.43,53030,16.19,73140.5,-4.63,-38.67,-40.73,0,*5E
1491926639.67,53031,16.19,73134.3,-4.67,-36.97,-38.85,0,*5C
1491926640.92,53032,16.19,73150.8,-4.67,-36.31,-38.11,0,*5E
1491926642.18,53033,16.19,73180.3,-4.69,-35.95,-37.75,0,*51
1491926643.43,53034,16.19,73164.8,-4.69,-35.59,-37.51,0,*50
1491926644.66,53035,16.19,73176.8,-4.71,-35.71,-37.63,0,*53
1491926645.87,53036,16.19,73190.5,-4.71,-35.53,-37.33,0,*55
1491926647.11,53037,16.19,73140.5,-4.69,-35.41,-37.33,0,*5E
1491926648.37,53038,16.19,73172.3,-4.71,-35.83,-37.63,0,*53
1491926649.62,53039,16.19,73184.8,-4.71,-35.65,-37.39,0,*55
1491926650.85,53040,16.19,73194.0,-4.71,-35.71,-37.81,0,*5D
1491926652.05,53041,16.19,73170.8,-4.71,-35.29,-37.15,0,*5C
1491926653.25,53042,16.19,73170.5,-4.71,-35.17,-37.15,0,*52
1491926654.44,53043,16.19,73174.5,-4.71,-35.17,-36.97,0,*58
1491926655.67,53044,16.19,73170.5,-4.71,-35.47,-37.39,0,*5F
1491926656.87,53045,16.19,73174.0,-4.71,-35.17,-37.03,0,*52
1491926658.07,53046,16.19,73172.0,-4.71,-35.13,-36.97,0,*59
1491926659.29,53047,16.19,73174.8,-4.71,-34.89,-36.61,0,*53
1491926660.52,53048,16.19,73168.3,-4.77,-35.01,-36.85,0,*51
1491926661.75,53049,16.19,73164.0,-4.71,-35.07,-36.85,0,*50
1491926662.95,53050,16.19,73168.5,-4.71,-35.13,-36.97,0,*5E
1491926664.18,53051,16.19,73176.8,-4.71,-34.95,-36.67,0,*5F
1491926665.41,53052,16.19,73168.8,-4.73,-35.13,-36.85,0,*5D
1491926666.66,53053,16.19,73170.8,-4.73,-35.47,-37.39,0,*5B
1491926667.92,53054,16.19,73160.0,-4.77,-35.71,-37.51,0,*53
1491926669.15,53055,16.19,73172.5,-4.77,-35.59,-37.57,0,*5E
1491926670.38,53056,16.19,73162.8,-4.73,-35.71,-37.57,0,*53
1491926671.64,53057,16.19,73152.0,-4.77,-36.07,-37.99,0,*56
1491926672.9,53058,16.19,73168.0,-4.77,-35.89,-37.69,0,*53
1491926674.18,53059,16.19,73176.8,-4.77,-35.23,-37.21,0,*5E
1491926675.47,53060,16.19,73170.8,-4.77,-35.23,-37.09,0,*5E
1491926676.7,53061,16.19,73170.0,-4.77,-35.17,-37.03,0,*52
1491926677.93,53062,16.19,73176.8,-4.77,-35.13,-37.03,0,*55
1491926679.18,53063,16.19,73180.8,-4.73,-34.89,-36.79,0,*5E
1491926680.43,53064,16.19,73176.3,-4.77,-35.17,-37.09,0,*5D
1491926681.69,53065,16.19,73176.3,-4.77,-35.13,-37.09,0,*58
1491926682.97,53066,16.19,73178.8,-4.77,-35.23,-37.21,0,*52
1491926684.22,53067,16.19,73176.3,-4.73,-34.89,-36.79,0,*5A
1491926685.48,53068,16.19,73176.8,-4.77,-35.17,-37.21,0,*5B
1491926686.73,53069,16.19,73176.8,-4.77,-35.35,-37.27,0,*5C
1491926687.94,53070,16.19,73184.3,-4.79,-35.29,-37.15,0,*56
1491926689.17,53071,16.19,73180.3,-4.79,-35.17,-37.09,0,*57
1491926690.37,53072,16.19,73186.3,-4.79,-34.89,-36.73,0,*5E
1491926691.63,53073,16.19,73188.8,-4.79,-34.83,-36.61,0,*56
1491926692.87,53074,16.19,73188.5,-4.77,-34.77,-36.67,0,*52
1491926694.12,53075,16.19,73180.8,-4.77,-34.77,-36.55,0,*52
1491926695.36,53076,16.19,73180.5,-4.77,-34.77,-36.55,0,*51
1491926696.6,53077,16.19,73178.8,-4.73,-34.89,-36.67,0,*54
1491926697.84,53078,16.19,73184.3,-4.77,-35.01,-36.73,0,*5B
1491926699.1,53079,16.19,73182.3,-4.77,-35.01,-36.91,0,*56
1491926700.36,53080,16.19,73178.0,-4.73,-35.47,-37.39,0,*55
1491926701.64,53081,16.19,73174.3,-4.77,-35.41,-37.39,0,*56
1491926702.88,53082,16.19,73178.5,-4.77,-35.41,-37.27,0,*5A
1491926704.14,53083,16.19,73176.8,-4.77,-34.95,-36.85,0,*5A
1491926705.41,53084,16.19,73176.0,-4.77,-34.83,-36.73,0,*53
1491926706.65,53085,16.19,73178.0,-4.77,-34.77,-36.67,0,*5C
1491926707.91,53086,16.19,73174.8,-4.73,-34.77,-36.61,0,*5D
1491926709.18,53087,16.19,73174.0,-4.77,-34.83,-36.67,0,*55
1491926710.42,53088,16.19,73176.5,-4.77,-35.01,-36.73,0,*54
1491926711.67,53089,16.19,73176.0,-4.73,-35.07,-36.85,0,*5E
1491926712.92,53090,16.19,73168.8,-4.73,-34.89,-36.79,0,*52
1491926714.18,53091,16.19,73168.8,-4.73,-34.89,-36.61,0,*5A
1491926715.43,53092,16.19,73170.3,-4.73,-35.07,-36.85,0,*54
1491926716.66,53093,16.19,73170.0,-4.77,-35.17,-36.97,0,*53
1491926717.9,53094,16.19,73174.8,-4.77,-35.01,-36.85,0,*50
1491926719.12,53095,16.19,73178.0,-4.73,-35.17,-37.03,0,*5D
1491926720.35,53096,16.19,73176.5,-4.73,-35.13,-37.03,0,*5A
1491926721.63,53097,16.19,73178.5,-4.73,-34.95,-36.79,0,*58
1491926722.92,53098,16.19,73178.5,-4.73,-34.95,-36.79,0,*57
1491926724.17,53099,16.19,73180.8,-4.77,-35.17,-36.91,0,*5F
1491926725.45,53100,16.19,73180.3,-4.73,-35.07,-36.79,0,*5D
1491926726.68,53101,16.19,73184.8,-4.73,-35.29,-37.03,0,*5C
1491926727.94,53102,16.19,73188.5,-4.73,-35.07,-36.85,0,*5C
1491926729.17,53103,16.19,73196.5,-4.73,-35.29,-36.97,0,*52
1491926730.43,53104,16.19,73192.0,-4.73,-35.07,-36.85,0,*5A
1491926731.65,53105,16.19,73192.5,-4.73,-35.13,-37.03,0,*51
1491926732.88,53106,16.19,73192.5,-4.73,-35.17,-37.03,0,*56
1491926734.14,53107,16.19,73190.8,-4.73,-35.07,-36.85,0,*59
1491926735.36,53108,16.19,73188.8,-4.73,-35.13,-36.85,0,*53
1491926736.59,53109,16.19,73188.5,-4.73,-35.13,-36.85,0,*52
1491926737.84,53110,16.19,73194.3,-4.73,-34.89,-36.61,0,*52
1491926739.06,53111,16.19,73194.5,-4.73,-35.13,-36.85,0,*5B
1491926740.3,53112,16.19,73196.3,-4.73,-34.89,-36.67,0,*56
1491926741.56,53113,16.19,73192.0,-4.73,-34.95,-36.67,0,*5A
1491926742.84,53114,16.19,73192.3,-4.73,-35.07,-36.79,0,*58
1491926744.1,53115,16.19,73192.5,-4.73,-35.35,-37.15,0,*53
1491926745.32,53116,16.19,73192.0,-4.73,-35.13,-36.85,0,*5C
1491926746.55,53117,16.19,73184.8,-4.73,-35.29,-36.97,0,*57
1491926747.81,53118,16.19,73198.5,-4.73,-35.47,-37.21,0,*5C
1491926749.06,53119,16.19,73194.5,-4.73,-35.35,-37.15,0,*5F
1491926750.29,53120,16.19,73198.8,-4.73,-35.29,-37.03,0,*5F
1491926751.55,53121,16.19,73188.5,-4.73,-35.35,-37.15,0,*54
1491926752.8,53122,16.19,73194.3,-4.73,-35.35,-37.03,0,*50
1491926754.02,53123,16.19,73188.0,-4.73,-35.17,-36.85,0,*5E
1491926755.28,53124,16.19,73184.3,-4.73,-35.47,-37.21,0,*53
1491926756.51,53125,16.19,73186.0,-4.73,-35.29,-37.03,0,*5A
1491926757.77,53126,16.19,73184.5,-4.77,-35.35,-37.03,0,*50
1491926759.02,53127,16.19,73184.5,-4.73,-35.47,-37.21,0,*50
1491926760.28,53128,16.19,73186.0,-4.73,-35.35,-37.15,0,*5D
1491926761.55,53129,16.19,73176.3,-4.77,-35.41,-37.09,0,*56
1491926762.8,53130,16.19,73180.3,-4.73,-35.13,-36.79,0,*5B
1491926764.06,53131,16.19,73182.8,-4.73,-35.29,-36.79,0,*53
1491926765.28,53132,16.19,73188.5,-4.73,-35.13,-36.85,0,*5A
1491926766.56,53133,16.19,73184.3,-4.77,-35.35,-37.09,0,*5E
1491926767.79,53134,16.19,73182.0,-4.73,-35.17,-36.85,0,*58
1491926769.01,53135,16.19,73182.5,-4.71,-35.17,-36.79,0,*58
1491926770.26,53136,16.19,73190.0,-4.73,-35.13,-36.79,0,*5D
1491926771.48,53137,16.19,73192.8,-4.73,-35.29,-36.85,0,*56
1491926772.73,53138,16.19,73190.3,-4.73,-35.17,-36.79,0,*57
1491926773.98,53139,16.19,73184.8,-4.73,-35.13,-36.79,0,*52
1491926775.21,53140,16.19,73194.3,-4.73,-35.17,-36.85,0,*5B
1491926776.4,53141,16.19,73196.0,-4.71,-35.17,-36.85,0,*58
1491926777.59,53142,16.19,73198.8,-4.71,-35.17,-36.85,0,*5B
1491926778.79,53143,16.19,73196.5,-4.71,-35.47,-37.03,0,*50
1491926780.02,53144,16.19,73198.0,-4.73,-35.29,-36.97,0,*51
1491926781.25,53145,16.19,73198.8,-4.73,-35.29,-36.85,0,*53
1491926782.45,53146,16.19,73206.3,-4.71,-35.47,-37.03,0,*55
1491926783.65,53147,16.19,73202.3,-4.71,-35.47,-36.97,0,*58
1491926784.9,53148,16.19,73200.5,-4.69,-35.29,-36.91,0,*50
1491926786.13,53149,16.19,73202.8,-4.71,-35.07,-36.67,0,*5D
1491926787.39,53150,16.19,73202.5,-4.69,-34.83,-36.31,0,*52
1491926788.61,53151,16.19,73202.8,-4.71,-34.89,-36.61,0,*55
1491926789.85,53152,16.19,73192.8,-4.69,-34.89,-36.55,0,*58
1491926791.13,53153,16.19,73200.3,-4.69,-35.07,-36.61,0,*59
1491926792.41,53154,16.19,73198.0,-4.69,-35.07,-36.61,0,*5E
1491926793.68,53155,16.19,73200.3,-4.69,-35.23,-36.79,0,*50
1491926794.9,53156,16.19,73202.0,-4.71,-35.29,-36.79,0,*50
1491926796.15,53157,16.19,73204.0,-4.69,-35.13,-36.61,0,*58
1491926797.4,53158,16.19,73204.8,-4.69,-35.13,-36.61,0,*57
1491926798.63,53159,16.19,73208.5,-4.69,-35.13,-36.55,0,*51
1491926799.88,53160,16.19,73202.3,-4.69,-35.13,-36.61,0,*5C
1491926801.16,53161,16.19,73208.8,-4.69,-35.23,-36.61,0,*5E
1491926802.43,53162,16.19,73210.8,-4.69,-35.41,-36.91,0,*56
1491926803.66,53163,16.19,73206.8,-4.69,-35.77,-37.15,0,*5F
1491926804.91,53164,16.19,73206.0,-4.69,-35.47,-37.09,0,*56
1491926806.13,53165,16.19,73202.5,-4.71,-35.53,-37.03,0,*51
1491926807.35,53166,16.19,73208.5,-4.69,-35.59,-36.97,0,*5D
1491926808.62,53167,16.19,73210.5,-4.69,-35.65,-37.09,0,*55
1491926809.85,53168,16.19,73208.8,-4.69,-35.13,-36.73,0,*57
1491926811.07,53169,16.19,73216.5,-4.69,-35.13,-36.73,0,*56
1491926812.3,53170,16.19,73208.5,-4.69,-35.29,-36.73,0,*57
1491926813.57,53171,16.19,73210.3,-4.69,-35.41,-36.91,0,*54
1491926814.82,53172,16.19,73212.3,-4.69,-35.47,-36.91,0,*51
1491926816.08,53173,16.19,73210.3,-4.67,-35.95,-37.45,0,*59
1491926817.34,53174,16.19,73208.8,-4.67,-35.95,-37.57,0,*5D
1491926818.59,53175,16.19,73208.0,-4.69,-35.95,-37.45,0,*51
1491926819.84,53176,16.19,73212.5,-4.69,-35.95,-37.33,0,*53
1491926821.09,53177,16.19,73212.0,-4.71,-35.83,-37.21,0,*5F
1491926822.29,53178,16.19,73210.3,-4.71,-35.47,-36.97,0,*54
1491926823.51,53179,16.19,73210.3,-4.69,-35.59,-36.97,0,*53
1491926824.71,53180,16.19,73212.8,-4.71,-35.89,-37.33,0,*5E
1491926825.94,53181,16.19,73212.5,-4.71,-36.07,-37.51,0,*5E
1491926827.21,53182,16.19,73212.8,-4.69,-35.65,-37.09,0,*5E
1491926828.46,53183,16.19,73214.8,-4.69,-35.47,-36.91,0,*5F
1491926829.68,53184,16.19,73214.5,-4.69,-35.59,-36.97,0,*51
1491926830.93,53185,16.19,73218.8,-4.69,-35.59,-36.91,0,*56
1491926832.16,53186,16.19,73216.8,-4.71,-35.83,-37.15,0,*56
1491926833.35,53187,16.19,73222.3,-4.71,-36.01,-37.33,0,*5A
1491926834.59,53188,16.19,73212.3,-4.69,-35.77,-37.15,0,*5A
1491926835.84,53189,16.19,73208.8,-4.69,-35.83,-37.15,0,*50
1491926837.09,53190,16.19,73212.3,-4.69,-36.13,-37.57,0,*54
1491926838.32,53191,16.19,73214.5,-4.71,-36.25,-37.75,0,*59
1491926839.58,53192,16.19,73216.5,-4.71,-36.25,-37.63,0,*5D
1491926840.8,53193,16.19,73210.0,-4.71,-36.49,-37.75,0,*51
1491926842.03,53194,16.19,73208.8,-4.71,-36.43,-37.93,0,*54
1491926843.29,53195,16.19,73204.8,-4.73,-36.43,-37.81,0,*54
1491926844.54,53196,16.19,73200.0,-4.71,-36.49,-38.11,0,*59
1491926845.78,53197,16.19,73202.8,-4.77,-36.43,-37.87,0,*54
1491926847.07,53198,16.19,73204.8,-4.77,-36.25,-37.51,0,*50
1491926848.29,53199,16.19,73206.8,-4.73,-36.01,-37.33,0,*57
1491926849.55,53200,16.19,73210.5,-4.73,-35.89,-37.21,0,*54
1491926850.78,53201,16.19,73210.8,-4.73,-36.01,-37.33,0,*55
1491926852.04,53202,16.19,73204.0,-4.77,-36.07,-37.39,0,*5E
1491926853.3,53203,16.19,73202.8,-4.73,-35.89,-37.09,0,*5D
1491926854.59,53204,16.19,73200.0,-4.77,-35.95,-37.39,0,*50
1491926855.85,53205,16.19,73204.5,-4.77,-35.77,-37.09,0,*5E
1491926857.11,53206,16.19,73200.5,-4.77,-35.89,-37.09,0,*5C
1491926858.34,53207,16.19,73196.0,-4.77,-36.07,-37.27,0,*54
1491926859.57,53208,16.19,73202.3,-4.73,-35.71,-36.97,0,*57
1491926860.82,53209,16.19,73202.8,-4.73,-36.01,-37.21,0,*5E
1491926862.07,53210,16.19,73198.8,-4.77,-36.13,-37.45,0,*53
1491926863.33,53211,16.19,73194.5,-4.73,-36.37,-37.75,0,*53
1491926864.58,53212,16.19,73194.5,-4.77,-36.55,-37.69,0,*5D
1491926865.84,53213,16.19,73202.0,-4.77,-36.31,-37.69,0,*5E
1491926867.1,53214,16.19,73196.0,-4.77,-36.25,-37.57,0,*51
1491926868.34,53215,16.19,73198.5,-4.77,-36.31,-37.57,0,*55
1491926869.59,53216,16.19,73192.3,-4.77,-36.13,-37.27,0,*51
1491926870.87,53217,16.19,73190.8,-4.77,-36.13,-37.39,0,*5F
1491926872.16,53218,16.19,73194.5,-4.77,-35.95,-37.21,0,*54
1491926873.41,53219,16.19,73196.0,-4.77,-35.95,-37.27,0,*53
1491926874.64,53220,16.19,73200.8,-4.73,-36.07,-37.33,0,*50
1491926875.91,53221,16.19,73202.0,-4.77,-36.43,-37.63,0,*50
1491926877.16,53222,16.19,73196.8,-4.77,-36.43,-37.69,0,*59
1491926878.39,53223,16.19,73196.8,-4.77,-36.43,-37.45,0,*56
1491926879.65,53224,16.19,73194.8,-4.77,-36.25,-37.57,0,*52
1491926880.92,53225,16.19,73198.3,-4.77,-36.43,-37.63,0,*54
1491926882.15,53226,16.19,73200.3,-4.79,-36.61,-37.87,0,*53
1491926883.36,53227,16.19,73196.5,-4.79,-36.97,-38.05,0,*5E
1491926884.61,53228,16.19,73198.3,-4.79,-36.79,-37.93,0,*51
1491926885.86,53229,16.19,73198.5,-4.81,-36.55,-37.69,0,*5C
1491926887.06,53230,16.19,73196.8,-4.79,-36.19,-37.33,0,*54
1491926888.29,53231,16.19,73198.3,-4.81,-36.01,-37.27,0,*5E
1491926889.49,53232,16.19,73206.3,-4.79,-36.01,-37.27,0,*5A
1491926890.72,53233,16.19,73204.3,-4.79,-36.01,-37.09,0,*57
1491926891.97,53234,16.19,73200.8,-4.81,-36.01,-37.09,0,*57
1491926893.2,53235,16.19,73200.8,-4.79,-36.01,-37.09,0,*51
1491926894.45,53236,16.19,73198.5,-4.79,-36.13,-37.09,0,*51
1491926895.65,53237,16.19,73196.0,-4.79,-36.19,-37.27,0,*56
1491926896.94,53238,16.19,73196.5,-4.81,-36.37,-37.63,0,*52